Regional Weather Roundup
Issued by NWS

Home | Current Version | Previous Version | Text Only | Print | Product List | Glossary On
Versions: 1 2 3 4 5 6 7 8 9 10 11 12 13 14 15 16 17 18 19 20 21 22 23 24 25 26 27 28 29 30 31 32 33 34 35 36 37 38 39 40 41 42 43 44 45 46 47 48 49 50
000
ASUS43 KLOT 220310
RWRIL

ILLINOIS REGIONAL WEATHER ROUNDUP
NATIONAL WEATHER SERVICE CHICAGO/ROMEOVILLE IL
1000 PM CDT SUN SEP 21 2014

NOTE: "FAIR" INDICATES FEW OR NO CLOUDS BELOW 12,000 FEET WITH NO
SIGNIFICANT WEATHER AND/OR OBSTRUCTIONS TO VISIBILITY.

* THESE STATIONS ARE NOT UNDER NWS QUALITY CONTROL. THEY ALSO MAY NOT
  REPORT WEATHER SUCH AS PRECIPITATION OR FOG.

ILZ001-002-007-009-015-016-024-220400-
NORTHWEST ILLINOIS

CITY           SKY/WX    TMP DP  RH WIND       PRES   REMARKS
MOLINE         CLEAR     58  47  66 N5        30.16R
STERLING*      CLEAR     54  46  76 N5        30.15R
SAVANNA*       CLEAR     51  47  83 CALM      30.16R
$$

ILZ003-004-008-010-011-017-018-220400-
NORTH CENTRAL ILLINOIS

CITY           SKY/WX    TMP DP  RH WIND       PRES   REMARKS
ROCKFORD       CLEAR     53  46  77 CALM      30.17R
FREEPORT*      CLEAR     50  47  88 NW3       30.18R
ROCHELLE*      CLEAR     50  46  86 N5        30.15R
DE KALB*       CLEAR     49  45  83 N3        30.15R
PERU*          CLEAR     51  47  86 N3        30.15R
$$

ILZ005-006-012>014-019>023-220400-
NORTHEAST ILLINOIS

CITY           SKY/WX    TMP DP  RH WIND       PRES   REMARKS
CHICAGO-OHARE  PTCLDY    57  47  69 N3        30.13R
CHICAGO-MIDWAY CLEAR     57  46  66 N7        30.13R
AURORA         CLEAR     49  44  83 N5        30.14R
LANSING*       CLEAR     56  46  68 N7        30.12R
JOLIET*        CLEAR     51  48  89 CALM      30.14R
WAUKEGAN       CLEAR     50  43  77 NW3       30.13R
DUPAGE AIRPORT CLEAR     49  44  83 N6        30.13R
KANKAKEE*      CLEAR     54  51  90 N3        30.13R
WHEELING       CLEAR     51  46  83 CALM      30.15R
MORRIS*        CLEAR     50  49  95 CALM      30.13R
ROMEOVILLE*    CLEAR     52  51  96 NE3       30.13R
NORTHERLY ISL    N/A     58  44  60 NW9         N/A
$$

LMZ740>746-220400-
SOUTHERN LAKE MICHIGAN

STATION/POSITION SKY/WX   TEMP    WIND        PRES    VSBY  WAVE
                          AIR SEA DIR/SP/G                  HT/PER
                          (F)     (DEG/KT/KT) (MB)    (MI)  (FT/S)
SOUTHERN BUOY              55 61  350/ 19/ 23 1019.7R         7/ 6
WAUKEGAN HARBOR            53     340/  6/  8   N/A
HARRISON CRIB              58     350/ 20/ 23   N/A
BURNHAM HARBOR             57     330/ 12/ 16   N/A
CALUMET HARBOR             58     340/ 12/ 15 1018.9R
MICHIGAN CITY              57     350/ 21/ 26   N/A
MICHIGAN CITY 6N           58 64   10/ 16/ 21   N/A           8/ 7
ST. JOSEPH                 58 65  350/ 19/ 29   N/A           8/ 6
$$

ILZ025>027-034>036-040-047-049-050-058-095>099-220400-
WEST-CENTRAL ILLINOIS

CITY           SKY/WX    TMP DP  RH WIND       PRES   REMARKS
QUINCY         CLEAR     55  49  80 N5        30.18R
GALESBURG*     CLEAR     55  51  86 NW6       30.16S
MACOMB*        CLEAR     52  50  94 W7        30.19R
JACKSONVILLE*  CLEAR     57  52  81 NW6       30.18S
PITTSFIELD*    CLEAR     58  50  76 NW5       30.19R
$$

ILZ028>032-037-038-041>044-048-051>054-059>061-220400-
CENTRAL ILLINOIS

CITY           SKY/WX    TMP DP  RH WIND       PRES   REMARKS
PONTIAC        PTCLDY    55  52  88 CALM      30.14R
DECATUR        CLEAR     59  51  75 NW10      30.14R
PEORIA         CLEAR     57  51  80 NW3       30.15R
LACON*         CLEAR     54  49  83 CALM      30.14R
LINCOLN*       CLEAR     57  51  82 CALM      30.13R
SPRINGFIELD    CLEAR     57  51  80 NW6       30.16R
TAYLORVILLE    CLEAR     54  50  87 NW5       30.15R
$$

ILZ033-039-045-046-055>057-062-063-220400-
EAST-CENTRAL ILLINOIS

CITY           SKY/WX    TMP DP  RH WIND       PRES   REMARKS
CHAMPAIGN      CLEAR     55  51  86 NW8       30.12R
DANVILLE*      CLOUDY    58  53  84 N7        30.08R
RANTOUL*       PTCLDY    58  50  75 NW7       30.13R
MATTOON        CLEAR     52  48  86 W6        30.12R
PARIS*         MOCLDY    57  52  85 NW6       30.11R
$$

ILZ079-100>102-220400-
SOUTHWEST ILLINOIS

CITY           SKY/WX    TMP DP  RH WIND       PRES   REMARKS
ALTON          CLEAR     61  48  63 N9        30.14S
BELLEVILLE     CLEAR     62  52  69 W8        30.14R
CAHOKIA*       CLEAR     64  51  62 N12       30.15R
SPARTA*        CLEAR     62  50  66 N7        30.14R
$$

ILZ064>066-069>071-074>076-080>082-084>086-088>090-092>094-220400-
SOUTH-CENTRAL ILLINOIS

CITY           SKY/WX    TMP DP  RH WIND       PRES   REMARKS
CARBONDALE     CLEAR     61  50  67 N6        30.11R
CAIRO*         CLEAR     62  53  72 N6        30.09R
EFFINGHAM*     CLEAR     59  48  68 NW8       30.13R
MARION         CLEAR     66  50  55 N6        30.11R
MT. VERNON     CLEAR     59  48  67 N5        30.13R
CENTRALIA*     CLEAR     59  50  72 N8        30.13R
SALEM*         CLEAR     57  54  89 N5        30.13R
METROPOLIS*    CLEAR     64  52  65 N3        30.08R
$$

ILZ067-068-072-073-078-083-087-091-220400-
SOUTHEAST ILLINOIS

CITY           SKY/WX    TMP DP  RH WIND       PRES   REMARKS
LAWRENCEVILLE  CLEAR     58  51  78 N8        30.10R
FAIRFIELD*     CLEAR    N/A N/A N/A N3        30.11R
HARRISBURG*    CLEAR     62  50  65 N5        30.11R
ROBINSON*      CLEAR     60  53  78 N7        30.11R
CARMI*         CLEAR     59  54  84 NW5       30.10R
$$

ABBREVIATIONS USED IN REMARKS
   TC - TEMPERATURE IN CELSIUS
  WCI - WIND CHILL INDEX
   HX - HEAT INDEX
  VSB - VISIBILITY
$$




USA.gov is the U.S. government's official web portal to all federal, state and local government web resources and services.